When you browse on this site, cookies collect data to enhance your experience and personalize the content and advertising you see.
Visit our Privacy Policy to learn more. By continuing to use the site, you agree to this use of cookies and data.
  • In Slovakia
  • List of Countries
  • For 7 days
  • Water Temperature
  • Weather Map
  • Weather Widgets
  • user-avatar
    Login

    Hourly Weather Lubango

    Today, 19 November, Tuesday

    Time Temperature Precipitation Wind Pressure Humidity
    00:00 +15°C° 0 mm 1 mps 607 mmHg 48%
    01:00 +15°C° 0 mm 1 mps 607 mmHg 44%
    02:00 +15°C° 0 mm 1 mps 606 mmHg 43%
    03:00 +14°C° 0 mm 1 mps 606 mmHg 42%
    04:00 +14°C° 0 mm 1 mps 606 mmHg 40%
    05:00 +15°C° 0 mm 1 mps 607 mmHg 40%
    06:00 +16°C° 0 mm 1 mps 607 mmHg 39%
    07:00 +19°C° 0 mm 1 mps 608 mmHg 39%
    08:00 +20°C° 0 mm 1 mps 609 mmHg 36%
    09:00 +22°C° 0 mm 1 mps 610 mmHg 32%
    10:00 +24°C° 0 mm 1 mps 610 mmHg 29%
    11:00 +25°C° 0 mm 2 mps 610 mmHg 28%
    12:00 +26°C° 0 mm 2 mps 610 mmHg 28%
    13:00 +27°C° 0 mm 2 mps 610 mmHg 28%
    14:00 +26°C° 0 mm 2 mps 609 mmHg 29%
    15:00 +25°C° 0 mm 3 mps 609 mmHg 30%
    16:00 +25°C° 0 mm 3 mps 608 mmHg 31%
    17:00 +22°C° 0 mm 3 mps 608 mmHg 36%
    18:00 +20°C° 0 mm 2 mps 607 mmHg 40%
    19:00 +18°C° 0 mm 2 mps 607 mmHg 45%
    20:00 +18°C° 0 mm 2 mps 607 mmHg 47%
    21:00 +18°C° 0 mm 1 mps 607 mmHg 48%
    22:00 +18°C° 0 mm 1 mps 608 mmHg 49%
    23:00 +18°C° 0 mm 1 mps 607 mmHg 49%

    Tomorrow, 20 November, Wednesday

    Time Temperature Precipitation Wind Pressure Humidity
    00:00 +16°C° 0 mm 1 mps 607 mmHg 50%
    01:00 +16°C° 0 mm 1 mps 607 mmHg 50%
    02:00 +16°C° 0 mm 1 mps 607 mmHg 49%
    03:00 +16°C° 0 mm 1 mps 606 mmHg 48%
    04:00 +15°C° 0 mm 1 mps 606 mmHg 48%
    05:00 +16°C° 0 mm 1 mps 607 mmHg 44%
    06:00 +18°C° 0 mm 1 mps 607 mmHg 40%
    07:00 +19°C° 0 mm 1 mps 608 mmHg 37%
    08:00 +21°C° 0 mm 1 mps 609 mmHg 32%
    09:00 +23°C° 0 mm 2 mps 610 mmHg 28%
    10:00 +25°C° 0 mm 2 mps 611 mmHg 24%
    11:00 +26°C° 0 mm 2 mps 610 mmHg 24%
    12:00 +26°C° 0 mm 2 mps 610 mmHg 24%
    13:00 +27°C° 0 mm 3 mps 610 mmHg 24%
    14:00 +26°C° 0 mm 3 mps 609 mmHg 24%
    15:00 +26°C° 0 mm 3 mps 608 mmHg 25%
    16:00 +25°C° 0 mm 3 mps 608 mmHg 26%
    17:00 +22°C° 0 mm 3 mps 607 mmHg 29%
    18:00 +20°C° 0 mm 3 mps 607 mmHg 31%
    19:00 +18°C° 0 mm 2 mps 606 mmHg 34%
    20:00 +17°C° 0 mm 2 mps 607 mmHg 35%
    21:00 +17°C° 0 mm 2 mps 607 mmHg 37%
    22:00 +18°C° 0 mm 1 mps 607 mmHg 39%
    23:00 +18°C° 0 mm 1 mps 607 mmHg 37%

    Day after tomorrow, 21 November, Thursday

    Time Temperature Precipitation Wind Pressure Humidity
    00:00 +18°C° 0 mm 1 mps 607 mmHg 34%
    01:00 +16°C° 0 mm 2 mps 607 mmHg 32%
    02:00 +16°C° 0 mm 1 mps 606 mmHg 33%
    03:00 +16°C° 0 mm 1 mps 606 mmHg 33%
    04:00 +16°C° 0 mm 1 mps 606 mmHg 33%
    05:00 +16°C° 0 mm 1 mps 607 mmHg 34%
    06:00 +18°C° 0 mm 1 mps 607 mmHg 36%
    07:00 +16°C° 0 mm 0 mps 608 mmHg 37%
    08:00 +20°C° 0 mm 1 mps 609 mmHg 34%
    09:00 +22°C° 0 mm 1 mps 610 mmHg 30%
    10:00 +24°C° 0 mm 1 mps 610 mmHg 27%
    11:00 +25°C° 0 mm 2 mps 610 mmHg 26%
    12:00 +26°C° 0 mm 2 mps 610 mmHg 26%
    13:00 +27°C° 0 mm 3 mps 610 mmHg 25%
    14:00 +26°C° 0 mm 3 mps 610 mmHg 26%
    15:00 +26°C° 0 mm 3 mps 609 mmHg 26%
    16:00 +25°C° 0 mm 4 mps 608 mmHg 27%
    17:00 +22°C° 0 mm 3 mps 608 mmHg 33%
    18:00 +20°C° 0 mm 2 mps 608 mmHg 38%
    19:00 +18°C° 0 mm 2 mps 607 mmHg 43%
    20:00 +17°C° 0 mm 2 mps 608 mmHg 45%
    21:00 +18°C° 0 mm 1 mps 608 mmHg 46%
    22:00 +16°C° 0 mm 1 mps 608 mmHg 48%
    23:00 +16°C° 0 mm 1 mps 608 mmHg 46%

    22 November, Friday

    Time Temperature Precipitation Wind Pressure Humidity
    00:00 +16°C° 0 mm 2 mps 608 mmHg 45%
    01:00 +15°C° 0 mm 2 mps 607 mmHg 44%
    02:00 +15°C° 0 mm 1 mps 607 mmHg 44%
    03:00 +15°C° 0 mm 1 mps 607 mmHg 45%
    04:00 +14°C° 0 mm 1 mps 606 mmHg 45%
    05:00 +15°C° 0 mm 1 mps 607 mmHg 43%
    06:00 +16°C° 0 mm 1 mps 608 mmHg 41%
    07:00 +16°C° 0 mm 0 mps 609 mmHg 39%
    08:00 +19°C° 0 mm 0 mps 610 mmHg 36%
    09:00 +23°C° 0 mm 1 mps 611 mmHg 32%
    10:00 +25°C° 0 mm 1 mps 612 mmHg 28%
    11:00 +26°C° 0 mm 1 mps 611 mmHg 27%
    12:00 +27°C° 0 mm 1 mps 611 mmHg 27%
    13:00 +28°C° 0 mm 2 mps 611 mmHg 26%
    14:00 +27°C° 0 mm 2 mps 610 mmHg 28%
    15:00 +27°C° 0 mm 2 mps 609 mmHg 29%
    16:00 +26°C° 0 mm 3 mps 609 mmHg 31%
    17:00 +24°C° 0 mm 3 mps 608 mmHg 36%
    18:00 +21°C° 0 mm 2 mps 608 mmHg 40%
    19:00 +19°C° 0 mm 2 mps 607 mmHg 45%
    20:00 +18°C° 0 mm 2 mps 608 mmHg 47%
    21:00 +19°C° 0 mm 1 mps 608 mmHg 49%
    22:00 +18°C° 0 mm 1 mps 608 mmHg 51%
    23:00 +18°C° 0 mm 1 mps 608 mmHg 53%

    23 November, Saturday

    Time Temperature Precipitation Wind Pressure Humidity
    00:00 +16°C° 0 mm 1 mps 608 mmHg 55%
    01:00 +16°C° 0 mm 1 mps 608 mmHg 56%
    02:00 +16°C° 0 mm 1 mps 607 mmHg 55%
    03:00 +16°C° 0 mm 1 mps 607 mmHg 54%
    04:00 +15°C° 0 mm 1 mps 607 mmHg 53%
    05:00 +16°C° 0 mm 1 mps 608 mmHg 50%
    06:00 +16°C° 0 mm 0 mps 608 mmHg 47%
    07:00 +17°C° 0 mm 0 mps 609 mmHg 43%
    08:00 +21°C° 0 mm 1 mps 610 mmHg 38%
    09:00 +24°C° 0 mm 1 mps 611 mmHg 33%
    10:00 +26°C° 0 mm 1 mps 612 mmHg 28%
    11:00 +27°C° 0 mm 2 mps 611 mmHg 27%
    12:00 +27°C° 0 mm 2 mps 611 mmHg 26%
    13:00 +28°C° 0 mm 2 mps 611 mmHg 25%
    14:00 +28°C° 0 mm 3 mps 610 mmHg 26%
    15:00 +27°C° 0 mm 3 mps 609 mmHg 27%
    16:00 +27°C° 0 mm 3 mps 608 mmHg 28%
    17:00 +24°C° 0 mm 3 mps 608 mmHg 35%
    18:00 +21°C° 0 mm 2 mps 607 mmHg 42%
    19:00 +18°C° 0 mm 2 mps 607 mmHg 49%
    20:00 +19°C° 0 mm 1 mps 607 mmHg 50%
    21:00 +19°C° 0 mm 1 mps 608 mmHg 50%
    22:00 +18°C° 0 mm 1 mps 608 mmHg 51%
    23:00 +18°C° 0 mm 1 mps 608 mmHg 52%

    24 November, Sunday

    Time Temperature Precipitation Wind Pressure Humidity
    00:00 +16°C° 0 mm 1 mps 607 mmHg 54%
    01:00 +16°C° 0 mm 1 mps 607 mmHg 55%
    02:00 +16°C° 0 mm 1 mps 607 mmHg 52%
    03:00 +15°C° 0 mm 1 mps 607 mmHg 49%
    04:00 +15°C° 0 mm 1 mps 606 mmHg 46%
    05:00 +18°C° 0 mm 1 mps 607 mmHg 43%
    06:00 +19°C° 0 mm 1 mps 608 mmHg 41%
    07:00 +20°C° 0 mm 1 mps 609 mmHg 39%
    08:00 +23°C° 0 mm 2 mps 609 mmHg 34%
    09:00 +25°C° 0 mm 2 mps 610 mmHg 30%
    10:00 +27°C° 0 mm 3 mps 611 mmHg 25%
    11:00 +28°C° 0 mm 3 mps 611 mmHg 24%
    12:00 +29°C° 0 mm 3 mps 610 mmHg 24%
    13:00 +30°C° 0 mm 3 mps 610 mmHg 23%
    14:00 +29°C° 0 mm 3 mps 609 mmHg 26%
    15:00 +28°C° 0 mm 4 mps 609 mmHg 28%
    16:00 +27°C° 0 mm 4 mps 608 mmHg 31%
    17:00 +24°C° 0 mm 3 mps 607 mmHg 39%
    18:00 +21°C° 0 mm 2 mps 607 mmHg 47%
    19:00 +18°C° 0 mm 2 mps 607 mmHg 55%
    20:00 +19°C° 0 mm 1 mps 607 mmHg 56%
    21:00 +18°C° 0 mm 1 mps 607 mmHg 57%
    22:00 +18°C° 0 mm 1 mps 607 mmHg 57%
    23:00 +18°C° 0 mm 1 mps 607 mmHg 53%
    Show more